EHI
0 0 0 0 0 0 0 0 0 0 0 1 5 9 12 15 19 21 18 16 17 16 12 11 9 5 4 2 1 0 0 1 2 3 4 4 4 2 1 0 0 0 0 0
0 0 0 0 0 0 0 0 0 0 0 1 5 8 11 13 16 18 18 16 16 14 12 11 9 6 3 2 1 0 0 0 1 2 3 3 3 2 1 0 0 0 0 0
0 0 0 0 0 0 0 0 0 0 0 1 5 7 9 10 12 14 16 15 14 13 11 11 9 6 3 1 1 0 0 0 0 1 3 3 2 1 1 1 1 0 0 0
0 0 0 0 0 0 0 0 0 0 0 1 3 5 7 8 7 10 13 14 13 11 9 9 8 6 3 1 0 0 0 0 0 0 2 3 2 1 0 1 1 0 0 0
0 0 0 0 0 0 0 0 0 0 0 0 1 2 4 6 6 7 11 13 10 8 7 8 8 6 3 2 1 0 0 0 0 1 1 2 3 2 0 0 0 0 0 0
0 0 0 0 0 0 0 0 0 0 0 0 0 0 2 4 5 6 9 10 8 6 6 7 8 6 4 2 1 0 0 0 0 1 2 2 2 1 0 0 0 1 1 1
0 0 0 0 0 0 0 0 0 0 0 0 0 0 1 2 3 6 9 7 5 6 6 7 7 6 4 2 2 1 0 0 0 1 1 2 2 1 0 0 0 1 1 1
0 0 0 0 0 0 0 0 0 0 0 0 0 0 1 2 3 5 6 3 3 5 6 6 6 6 4 3 2 1 0 0 0 0 0 1 1 0 0 0 0 0 0 0
0 0 0 0 0 0 0 0 0 0 0 0 0 0 0 2 3 4 3 1 2 4 6 6 6 5 3 2 2 1 0 0 0 1 0 0 0 0 0 0 0 0 0 0
0 0 0 0 0 0 0 0 0 0 0 0 0 0 0 1 2 3 2 1 2 5 5 5 4 4 2 1 1 0 0 0 0 0 0 0 0 0 0 0 0 0 0 0
0 0 0 0 0 0 0 0 0 0 0 0 0 0 0 0 1 2 1 1 2 4 4 4 3 2 1 1 1 0 0 0 0 0 0 0 0 0 0 0 0 0 0 0
0 0 0 0 0 0 0 0 0 0 0 0 0 0 0 0 0 0 0 0 1 1 2 3 2 2 1 1 1 0 0 0 0 0 0 0 0 0 0 0 0 0 0 0
0 0 0 0 0 0 0 0 0 0 0 0 0 0 0 0 0 0 0 0 0 0 1 1 1 2 2 1 0 0 0 0 0 0 0 0 0 0 0 0 0 0 0 0
0 0 0 0 0 0 0 0 0 0 0 0 0 0 0 0 0 0 0 0 0 0 0 0 1 2 2 1 0 0 0 0 0 0 0 0 0 0 0 0 0 0 0 0
0 0 0 0 0 0 0 0 0 0 0 0 0 0 0 0 0 0 0 0 0 0 0 0 0 1 1 0 0 0 0 0 0 0 0 0 0 0 0 0 0 0 0 0
0 0 0 0 0 0 0 0 0 0 0 0 0 0 0 0 0 0 0 0 0 0 0 0 0 0 0 0 0 0 0 0 0 0 0 0 0 0 0 0 0 0 0 0
0 0 0 0 0 0 0 0 0 0 0 0 0 0 0 0 0 0 0 0 0 0 0 1 1 1 0 0 0 0 0 0 0 0 0 0 0 0 0 0 0 0 0 0
0 0 0 0 0 0 0 0 0 0 0 0 0 0 0 0 0 0 0 0 0 0 1 2 2 1 0 0 0 0 0 0 0 0 0 0 0 0 0 0 0 0 0 0
0 0 0 0 0 0 0 0 0 0 0 0 0 0 0 0 0 0 0 0 0 0 1 2 1 0 0 0 0 0 0 0 0 0 0 0 0 0 0 0 0 0 0 0
0 0 0 0 0 0 0 0 0 0 0 0 0 0 0 0 0 0 0 0 0 1 1 1 0 0 0 0 0 0 0 0 0 0 0 0 0 0 0 0 0 0 0 0
0 0 0 0 0 0 0 0 0 0 0 0 0 0 0 0 0 0 0 0 0 1 0 0 0 0 0 0 0 0 0 0 0 0 0 0 0 0 0 0 0 0 0 0
0 0 0 0 0 0 0 0 0 0 0 0 0 0 0 0 0 0 0 0 0 0 0 0 0 0 0 0 0 0 0 0 0 0 0 0 0 0 0 0 0 0 0 0
0 0 0 0 0 0 0 0 0 0 0 0 0 0 0 0 0 0 0 0 0 0 0 0 0 0 0 0 0 0 0 0 0 0 0 0 0 0 0 0 0 0 0 0
0 0 0 0 0 0 0 0 0 0 0 0 0 0 0 0 0 0 0 0 0 0 0 0 0 0 0 0 0 0 0 0 0 0 0 0 0 0 0 0 0 0 0 0
0 0 0 0 0 0 0 0 0 0 0 0 0 0 0 0 0 0 0 0 0 0 0 0 0 0 0 0 0 0 0 0 0 0 0 0 0 0 0 0 0 0 0 0
0 0 0 0 0 0 0 0 0 0 0 0 0 0 0 0 0 0 0 0 0 0 0 0 0 0 0 0 0 0 0 0 0 0 0 0 0 0 0 0 0 0 0 0
Wind_Speed
0 3 3 7 6 6 4 2 3 4 3 4 4 2 3 4 6 8 8 8 7 7 5 5 6 6 5 4 4 3 3 1 1 1 1 0 0 1 1 1 1 1 1 2
3 4 9 5 3 2 3 2 4 3 1 4 4 2 1 3 5 7 7 7 7 6 5 4 4 4 4 4 3 3 2 2 1 1 1 1 1 1 1 1 1 1 1 2
4 7 4 2 3 3 4 3 3 2 3 4 4 4 4 3 5 5 4 5 6 7 7 5 4 3 3 3 3 3 2 1 1 1 1 1 1 1 1 1 2 2 2 2
3 5 2 2 4 3 4 3 1 0 3 1 2 1 2 0 3 3 3 4 5 5 5 5 4 3 3 3 3 2 2 1 1 1 1 1 1 1 2 2 2 3 3 3
4 3 2 3 5 3 4 1 1 1 3 1 3 3 3 0 1 0 1 3 4 4 5 5 4 4 3 3 3 2 1 1 0 1 1 1 1 2 1 1 2 3 3 3
5 4 3 4 3 2 2 4 5 5 5 2 2 3 3 2 4 2 2 2 3 3 4 3 3 3 2 2 2 2 1 0 0 1 2 2 2 2 1 2 2 2 2 2
5 4 3 1 1 3 4 6 5 6 5 2 1 3 3 3 3 5 4 3 3 3 3 3 3 2 2 3 2 1 1 1 1 1 1 2 2 2 2 2 2 2 2 2
1 5 3 1 3 2 2 7 6 3 3 3 2 1 3 3 2 3 4 4 3 2 2 3 3 3 2 2 2 1 1 1 1 1 1 2 2 1 2 2 2 2 3 3
3 5 4 2 1 4 2 2 6 6 1 1 1 0 2 1 3 4 4 3 2 2 2 2 2 2 2 2 2 2 1 0 0 1 1 2 2 2 2 2 2 2 3 3
3 2 4 3 4 3 3 4 5 4 2 0 1 2 4 3 3 3 3 3 2 2 2 2 2 2 1 1 1 1 1 1 1 0 1 1 2 1 2 1 2 2 2 2
3 2 4 3 1 1 2 2 4 4 4 4 2 4 4 6 5 5 4 4 3 3 2 1 1 1 1 1 1 1 0 1 1 0 1 1 2 1 1 1 2 2 1 1
1 5 1 4 4 1 2 3 5 4 2 3 3 5 2 5 5 4 4 4 3 3 2 2 2 2 2 1 1 1 0 1 0 0 0 1 1 2 2 2 3 2 1 1
3 6 3 6 7 6 3 1 2 5 4 3 3 4 1 3 3 3 4 4 3 3 3 2 2 2 1 1 1 1 0 0 1 0 1 1 1 2 2 2 2 2 1 1
5 4 6 6 5 3 3 3 1 4 3 2 4 4 2 2 3 3 3 4 3 3 3 2 1 1 1 0 0 0 1 1 1 1 1 1 2 2 2 2 2 2 1 1
5 2 2 4 4 1 2 2 0 1 4 5 4 5 5 5 5 5 5 4 4 3 2 2 1 1 0 1 1 1 1 1 0 1 1 1 2 2 2 2 2 1 1 1
3 2 1 2 2 1 2 1 2 1 2 4 4 1 3 3 4 4 5 4 4 3 2 2 2 1 1 0 0 1 1 1 0 1 1 1 1 2 2 2 2 1 1 2
1 3 2 3 4 2 2 1 3 2 2 4 3 4 3 4 6 7 6 4 4 3 2 2 2 2 2 1 1 1 1 1 0 0 1 1 1 1 2 2 2 1 1 1
5 3 3 1 2 1 4 1 6 6 3 2 4 4 5 5 5 5 5 5 4 3 3 2 2 2 1 1 0 0 0 1 1 0 1 1 1 1 2 2 2 2 1 1
7 7 3 3 1 2 3 2 2 4 1 1 4 4 3 5 5 1 1 3 4 4 3 3 3 2 1 1 1 1 1 1 1 1 1 1 1 0 1 1 2 1 1 1
4 5 5 3 3 4 5 5 0 6 1 2 3 4 4 5 3 3 3 3 3 3 2 2 2 1 1 1 1 2 1 1 1 2 2 1 0 0 0 1 1 1 1 1
2 2 2 3 3 4 4 3 3 3 5 3 3 4 4 4 5 5 3 3 3 3 2 3 3 2 2 2 2 2 1 1 2 1 0 0 0 0 1 1 1 1 1 1
4 3 2 3 3 5 4 2 4 6 3 3 3 4 3 3 3 4 4 4 4 3 2 3 3 2 1 2 2 1 1 2 1 0 1 1 1 1 1 1 1 1 1 1
2 5 4 5 6 5 1 4 4 5 4 3 3 3 4 4 3 4 4 4 3 3 3 3 3 2 1 2 2 2 2 1 0 1 1 1 1 2 1 1 1 1 1 1
2 1 3 2 0 1 0 2 2 4 4 3 4 4 4 4 4 3 4 3 2 2 2 2 3 2 2 2 2 2 2 1 1 1 0 0 0 2 2 1 1 0 1 1
2 1 2 1 1 1 2 0 1 2 3 4 3 3 4 5 4 3 3 3 2 2 2 2 3 3 3 3 2 2 1 1 1 0 0 1 1 1 2 2 1 1 2 3
2 2 3 4 4 3 3 2 1 4 4 4 4 3 3 4 5 4 3 3 3 2 2 2 2 3 3 2 2 2 2 2 2 0 1 1 1 1 1 1 3 3 3 4
Wind_Direction
262 76 243 234 213 213 242 263 284 267 220 106 120 143 163 165 151 148 149 151 147 146 144 140 141 145 144 142 141 144 134 134 109 95 80 45 302 314 331 304 295 311 299 310
26 266 243 231 248 250 255 274 283 291 117 110 125 99 119 127 151 150 150 152 148 133 128 135 137 141 148 161 162 150 146 144 138 149 170 189 209 237 243 281 305 292 309 302
202 250 249 203 263 284 277 231 239 250 21 51 98 38 32 33 71 96 117 130 134 141 147 151 147 151 150 159 160 149 159 155 160 151 95 40 32 19 354 320 299 291 289 289
250 257 257 241 246 216 265 263 229 168 81 320 108 141 288 40 58 84 122 131 146 153 155 159 162 172 170 168 150 140 149 148 174 145 125 129 187 229 248 248 260 287 291 289
261 254 258 257 247 202 225 246 73 96 114 49 25 105 286 20 79 264 168 154 155 152 155 162 162 166 161 149 145 149 123 103 148 150 171 181 233 238 261 281 286 292 295 293
254 260 220 231 259 176 130 35 29 46 67 34 284 137 275 246 213 208 220 168 146 139 146 148 146 146 140 134 134 146 122 170 251 196 200 196 217 242 272 290 288 292 296 295
322 318 287 240 21 353 73 73 29 6 15 269 317 109 245 257 211 180 181 170 140 144 147 140 136 133 135 134 132 134 130 203 253 231 235 225 225 229 235 254 259 273 284 274
320 299 279 254 188 185 165 135 149 190 223 269 2 150 251 264 187 145 139 140 133 128 145 150 155 155 151 151 154 161 153 203 244 284 279 274 257 248 256 255 254 255 253 249
190 263 286 254 219 144 135 152 164 140 131 91 290 162 304 26 94 108 107 112 131 146 139 157 157 149 148 159 184 181 164 139 250 272 288 290 280 273 271 278 275 269 265 258
161 260 296 308 34 11 143 137 83 94 124 250 263 220 220 212 175 149 138 139 136 120 116 142 139 123 142 184 213 151 168 203 244 257 289 307 281 283 280 284 286 284 293 298
112 128 313 358 78 229 39 60 98 111 146 151 219 262 218 188 187 176 167 157 155 139 144 140 127 121 129 93 70 91 89 90 39 359 328 347 340 337 325 316 298 298 303 317
120 115 296 283 279 201 139 161 138 137 218 153 157 261 252 170 181 168 160 157 148 139 124 116 109 92 84 77 61 64 66 104 297 235 329 325 337 346 350 330 313 319 325 324
112 100 44 347 347 360 19 12 129 131 120 141 154 249 263 143 146 152 149 152 142 128 105 91 81 82 88 84 57 46 349 235 260 294 5 338 331 326 323 315 318 328 335 340
104 108 154 192 225 267 308 323 22 110 134 182 197 194 197 170 153 154 139 135 133 132 125 114 99 91 96 90 36 357 314 296 329 6 357 341 304 300 304 321 330 335 338 349
91 124 208 233 246 249 269 287 352 127 174 170 190 171 200 195 175 162 143 128 120 127 128 141 151 143 83 26 6 6 305 304 338 26 1 306 280 300 333 344 336 338 349 345
73 121 29 313 291 353 349 8 98 91 122 131 126 182 224 180 140 135 141 143 141 152 160 157 152 145 174 239 331 355 298 289 340 63 358 331 346 344 343 332 348 17 12 8
100 111 93 277 301 16 349 284 137 109 110 141 166 208 170 140 157 164 165 161 166 170 170 162 169 179 196 216 211 247 282 310 46 64 38 29 24 10 342 341 25 6 349 10
151 127 136 221 17 233 246 228 125 113 78 102 139 156 158 163 170 169 162 161 170 169 169 174 178 183 194 188 198 273 18 46 65 27 350 334 343 340 340 8 4 343 341 355
156 145 139 135 171 261 295 304 151 131 61 41 119 127 117 104 85 47 198 165 169 173 178 185 187 180 169 171 165 87 70 52 30 318 289 285 294 343 354 357 334 332 1 349
111 118 132 150 170 214 246 281 264 102 85 303 115 119 134 115 113 237 228 173 155 157 161 167 167 138 143 213 121 94 66 22 315 278 258 251 248 116 298 308 301 306 323 282
80 82 145 171 198 242 254 275 71 122 230 221 150 148 156 170 195 203 182 169 161 156 155 150 146 154 194 189 123 104 40 307 277 266 359 5 20 112 247 287 303 306 323 334
169 162 186 158 183 246 273 99 152 201 198 155 149 161 158 166 154 142 147 154 156 151 147 148 148 179 207 162 132 127 281 285 297 51 46 14 354 324 360 6 339 348 12 1
164 183 179 176 201 225 210 159 171 154 147 155 155 168 150 137 145 146 152 159 162 165 167 164 163 177 208 183 158 176 261 278 40 54 36 16 353 337 339 11 353 354 2 351
318 38 90 80 183 192 135 122 126 136 148 156 142 147 135 135 145 147 151 155 161 175 176 170 161 172 216 222 198 209 231 216 113 83 40 13 341 326 331 338 333 325 305 295
267 27 63 56 264 20 359 295 189 141 127 123 124 137 144 138 146 157 164 169 174 178 189 174 176 193 215 217 225 234 212 151 126 142 245 265 274 282 312 321 298 263 256 226
248 173 163 228 232 197 239 245 160 131 142 149 143 141 155 154 160 157 167 177 177 185 188 180 189 202 213 206 220 233 201 167 152 168 252 254 270 286 292 310 330 322 275 281